This is the latest recevied weather packets stored in our database for station/object WC4PEM-13. If no packets are shown the sender has not sent any weather packets the latest 10 day(s).
| Time | Temp. | Humidity | Pressure | Rain* | Wind** | Luminosity | Snow |
|---|---|---|---|---|---|---|---|
| 1777405965 | 31.11° C | 57% | 1018 hPa | 0 mm | - | - | - |
| 1777405665 | 31.11° C | 57% | 1018.2 hPa | 0 mm | - | - | - |
| 1777405365 | 31.11° C | 57% | 1018.2 hPa | 0 mm | - | - | - |
| 1777405065 | 31.11° C | 56% | 1018.2 hPa | 0 mm | - | - | - |
| 1777404765 | 31.11° C | 56% | 1018.1 hPa | 0 mm | - | - | - |
| 1777404465 | 31.11° C | 54% | 1018.2 hPa | 0 mm | - | - | - |
| 1777404165 | 31.67° C | 56% | 1018.2 hPa | 0 mm | - | - | - |
| 1777403865 | 31.67° C | 56% | 1018.2 hPa | 0 mm | - | - | - |
| 1777403565 | 31.11° C | 57% | 1018.2 hPa | 0 mm | - | - | - |
| 1777403265 | 31.11° C | 57% | 1018.1 hPa | 0 mm | - | - | - |
| 1777402965 | 30.56° C | 57% | 1018.2 hPa | 0 mm | - | - | - |
| 1777402665 | 30.56° C | 59% | 1018.1 hPa | 0 mm | - | - | - |
| 1777402365 | 30° C | 59% | 1018.2 hPa | 0 mm | - | - | - |
| 1777402065 | 30° C | 60% | 1018.2 hPa | 0 mm | - | - | - |
| 1777401765 | 30° C | 60% | 1018.3 hPa | 0 mm | - | - | - |
| 1777401465 | 29.44° C | 63% | 1018.4 hPa | 0 mm | - | - | - |
| 1777401165 | 29.44° C | 61% | 1018.4 hPa | 0 mm | - | - | - |
| 1777400865 | 29.44° C | 63% | 1018.4 hPa | 0 mm | - | - | - |
| 1777400565 | 30° C | 60% | 1018.4 hPa | 0 mm | - | - | - |
| 1777400265 | 30.56° C | 59% | 1018.5 hPa | 0 mm | - | - | - |
| 1777399965 | 30° C | 58% | 1018.6 hPa | 0 mm | - | - | - |
| 1777399665 | 30.56° C | 58% | 1018.5 hPa | 0 mm | - | - | - |
| 1777399365 | 30° C | 59% | 1018.6 hPa | 0 mm | - | - | - |
| 1777399065 | 30° C | 59% | 1018.6 hPa | 0 mm | - | - | - |
| 1777398765 | 30° C | 59% | 1018.5 hPa | 0 mm | - | - | - |
* Rain latest hour (hover to see other rain measurements)
** Current wind speed in m/s (hover to see current wind gust speed)